Location: Little Chesterford
(52.0500°N, 0.1833°E)
Time: 19:38:03
(UTC+00:00)

MOS 1 - Pass Details

Date: 26 September 2023
Orbit: 878 x 890 km, 99.0° (Epoch: 08 December)

Event Time Altitude Azimuth Distance (km) Brightness Sun altitude
Exits shadow 20:05:48 40° 138° (SE) 1,275 4.6 -21.2°
Maximum altitude 20:07:50 68° 69° (ENE) 946 4.2 -21.4°
Drops below altitude 10° 20:13:27 10° 348° (NNW) 2,547 7.2 -22.2°
Sets 20:15:51 0° 346° (NNW) 3,490 8.0 -22.5°
